Voltar ao catálogo

CZ-6A DEB

AtivoPO
NORAD 60842·DEBRIS·🇨🇳 China

Lançado Aug 6, 2024 de Taiyuan Satellite Launch Center

Loading…

Próximas Passagens (próximas 24 horas)

TLE

AtualizadoSource: Space-Track

Época: Sep 13, 2026, 22:46 UTC

1 60842U 24140HV  26256.94890016  .00001731  00000-0  17755-3 0  9999
2 60842  88.8925 245.4660 0147097 193.9004 165.8155 14.82130419112494

Acompanhe CZ-6A DEB em tempo real com AllMySat

Download on the App Store